Retour au catalogue

STARLINK-35373

ActifCommunicationsSSO
NORAD 65792·PAYLOAD·🇺🇸 United States

Lancé Sep 26, 2025 depuis Vandenberg Space Force Base

Loading…

Prochains Passages (prochaines 24 heures)

TLE

FraisSource: CelesTrak SupGP

Époque: Sep 14, 2026, 15:48 UTC

1 65792C 25218B   26257.65881944 -.00036886  00000+0 -11449-2 0  2574
2 65792  97.2843 115.1466 0002047  99.1468 150.7110 15.33460228    18

Suivez STARLINK-35373 en temps réel avec AllMySat

Download on the App Store